{"data":{"norad_id":62055,"intl_designator":"2024-216Z","name":"STARLINK-32571","alt_names":[],"object_type":"PAYLOAD","status":"ACTIVE","operator":null,"country":"US","launch_date":"2024-11-21","launch_site_code":"AFETR","launch_vehicle":null,"mission":null,"orbit_class":"UNKNOWN","rcs_meters":null,"size_class":null,"mass_kg":null,"dimensions":null,"purposes":["comms"],"wikipedia_slug":null,"has_3d_model":false,"image_url":null,"decayed_at":null,"tle_current":{"epoch":"2026-05-25T03:19:45.289632Z","epoch_age_seconds":62744,"freshness":"FRESH","line1":"1 62055U 24216Z   26145.13871863  .00012936  00000+0  47840-3 0  9994","line2":"2 62055  42.9992 184.0482 0001679 256.9314 103.1351 15.27606117 85671","mean_motion":15.27606117,"eccentricity":0.0001679,"inclination_deg":42.9992,"raan_deg":184.0482,"arg_perigee_deg":256.9314,"mean_anomaly_deg":103.1351,"bstar":0.0004784,"rev_number":8567,"period_min":94.265137064779,"perigee_km":481.81891344499,"apogee_km":484.12287347561,"semimajor_km":6861.1078934603,"source":"CELESTRAK","updated_at":"2026-05-25T13:38:19.529072Z"}}}